Theta_e
315 315 315 315 315 314 315 314 314 314 314 314 315 315 315 315 315 315 315 315 315 316 317 319 321 324 326 329 337 338 341 341 343 341 343 343 345 344 344 345 346 348 347 343 344 342 344
318 318 318 318 318 318 317 317 316 315 315 314 315 315 315 315 315 316 316 316 316 316 317 318 320 322 325 329 338 339 339 342 342 343 340 343 348 349 345 344 346 341 344 341 342 342 344
318 318 317 317 317 318 318 319 319 319 318 316 315 315 315 315 315 316 316 316 316 316 316 317 318 319 323 333 335 343 337 339 343 344 344 342 346 348 351 346 342 342 340 340 340 343 344
314 313 313 312 312 312 312 312 313 315 317 318 317 316 315 315 315 316 316 316 316 316 316 317 317 317 325 332 335 337 342 338 340 344 347 346 350 350 351 345 340 339 339 343 341 342 343
309 308 308 308 308 308 308 309 309 310 311 314 317 317 316 316 315 316 316 317 317 316 316 317 317 317 323 331 334 335 340 340 338 340 344 348 348 348 346 340 343 338 340 341 343 341 343
306 307 307 307 307 307 307 308 308 308 308 310 313 316 317 316 316 316 321 326 323 318 316 316 316 319 325 332 334 336 337 339 340 342 343 344 347 343 335 342 346 344 341 339 341 342 344
306 306 306 306 306 306 307 307 307 307 308 308 309 313 316 317 316 317 323 325 324 322 318 318 318 319 328 328 330 335 337 339 341 345 344 345 342 342 340 340 343 343 340 340 339 340 343
306 306 306 306 306 306 306 307 307 307 308 308 309 310 314 317 316 320 323 323 321 321 320 322 323 323 322 321 321 328 335 339 342 345 338 334 339 338 337 336 338 339 339 337 337 341 340
305 306 306 306 306 306 306 306 307 307 308 308 309 310 313 316 316 322 322 322 322 321 319 321 322 322 323 323 323 325 333 341 342 343 339 338 336 337 337 335 332 332 336 338 339 342 338
305 305 305 306 306 306 306 307 307 307 308 308 309 310 312 316 317 321 322 323 321 322 313 317 321 323 322 323 323 324 327 331 331 328 328 334 334 337 335 332 330 330 331 335 341 342 344
305 305 305 306 306 306 307 307 307 308 309 311 310 311 312 316 317 319 322 323 321 322 317 320 321 322 323 323 323 324 325 327 329 332 331 331 332 331 329 328 328 330 330 328 331 339 336
306 305 306 306 306 306 307 308 308 309 315 313 312 311 312 316 317 319 321 321 322 314 317 319 320 317 321 323 323 325 324 326 327 327 326 328 328 328 327 329 329 329 329 324 322 326 337
306 306 306 307 307 307 308 309 309 312 316 320 314 312 314 316 319 320 321 322 313 315 317 319 318 316 317 318 320 318 325 325 325 328 327 325 326 327 329 329 328 327 325 328 331 329 335
307 307 307 307 308 308 308 310 309 313 317 320 317 318 319 319 318 320 320 313 317 319 319 317 317 315 318 316 319 317 320 321 319 322 321 324 327 326 327 328 330 327 325 327 333 330 330
311 310 309 309 309 309 310 311 311 311 319 320 321 322 322 321 320 320 319 310 312 317 318 317 316 317 316 316 318 317 317 317 320 319 321 323 323 324 326 326 328 328 328 325 324 321 325
314 313 312 312 312 311 311 312 313 312 318 324 323 323 322 323 322 321 310 311 315 315 317 318 319 317 317 316 318 316 319 318 317 318 317 320 321 320 322 326 326 326 324 327 322 331 331
315 315 315 315 314 314 314 313 314 313 316 323 324 324 323 321 321 320 313 314 316 319 319 318 318 318 319 320 318 318 317 318 320 319 316 318 317 320 320 325 324 322 326 323 321 322 327
317 317 316 317 316 315 315 314 314 314 314 323 324 320 322 323 318 310 313 313 317 317 318 316 318 318 319 319 320 318 321 320 321 319 323 316 313 317 321 319 318 322 323 320 321 324 322
319 318 317 317 316 315 315 315 315 315 313 315 323 323 321 321 313 311 311 314 316 315 315 316 318 316 316 319 321 317 320 320 321 320 324 323 316 317 318 318 319 320 320 321 317 317 322
320 319 319 317 317 316 316 316 315 314 314 313 318 314 314 314 313 311 311 313 315 317 316 318 317 317 317 318 317 320 320 320 320 321 323 322 314 316 317 319 319 320 321 321 319 319 320
321 320 319 319 318 318 317 317 315 314 313 313 310 312 311 306 308 310 310 311 315 316 316 317 317 316 317 317 316 318 318 317 319 320 320 318 322 316 318 319 320 319 320 320 321 319 322
321 321 320 319 318 318 316 316 316 314 310 309 310 311 312 311 311 309 309 312 315 315 315 315 317 316 316 317 317 317 317 316 318 318 319 315 321 321 322 322 321 323 322 322 321 322 319
323 322 321 320 319 318 318 315 315 314 310 306 307 310 313 310 310 308 308 312 312 313 313 315 315 314 316 316 313 314 316 316 316 316 317 316 317 319 322 321 321 324 323 321 321 320 321
322 323 322 321 321 320 319 317 314 312 308 305 305 307 310 306 310 309 312 311 313 313 312 311 311 313 315 314 312 313 314 313 314 315 316 315 315 316 319 322 326 323 321 323 325 324 329
321 320 322 322 322 321 320 319 316 312 309 306 305 305 307 305 309 310 313 312 309 309 310 312 312 312 312 313 312 312 316 317 317 316 314 315 315 317 321 322 323 324 324 325 326 327 331
322 322 319 320 322 321 321 320 318 314 310 307 306 304 305 307 303 310 311 309 309 308 306 310 310 309 313 310 312 311 315 319 319 322 310 309 312 318 317 322 325 323 324 328 324 324 332
322 324 321 319 320 321 321 321 318 317 313 308 306 304 304 305 304 306 308 305 308 308 306 309 310 308 306 308 313 316 317 321 324 325 320 318 315 319 317 322 320 322 323 326 325 325 331
322 322 320 315 318 320 320 320 319 317 314 309 306 305 304 304 304 304 304 305 306 308 307 307 304 305 308 310 310 310 316 319 320 321 322 319 318 319 317 321 324 323 323 325 322 323 328
322 320 316 315 311 318 319 320 320 318 314 309 306 305 304 304 304 305 306 307 306 305 306 307 304 305 307 309 309 310 314 314 315 316 317 324 319 323 319 319 321 322 322 322 324 327 327
Wind_Speed
14 15 15 15 15 15 14 13 13 14 14 14 14 14 13 13 12 11 10 10 11 10 9 8 8 8 9 6 3 4 8 12 15 14 7 7 2 2 4 2 3 4 5 9 8 9 13
16 16 16 16 16 16 16 16 15 14 14 14 15 14 14 13 13 12 10 11 11 11 10 9 8 7 8 3 2 5 9 13 15 15 12 6 4 10 6 3 3 4 6 12 3 10 16
17 18 18 18 17 17 17 17 16 16 15 15 15 15 15 15 14 13 12 12 12 11 10 10 9 8 10 10 4 5 11 13 14 14 14 6 8 6 10 4 6 5 5 5 3 8 5
17 17 18 18 19 19 19 18 17 17 17 16 16 16 16 15 14 12 12 13 11 11 11 10 9 8 7 8 7 7 9 14 14 14 12 7 8 8 6 8 4 4 3 2 4 6 9
17 18 18 18 18 19 19 20 20 19 18 17 16 15 15 14 13 11 11 11 10 9 9 9 8 6 8 7 13 11 11 14 14 13 12 10 11 4 4 2 5 5 3 5 2 10 6
18 19 19 19 20 20 21 21 21 20 20 18 16 15 14 13 11 9 7 4 2 5 7 8 10 3 14 6 8 12 12 17 7 3 4 4 3 2 4 4 3 6 4 6 5 6 6
19 20 20 21 21 22 22 22 22 22 21 20 17 15 13 12 10 5 4 2 2 2 7 8 5 5 1 6 12 7 11 16 11 2 4 4 2 6 10 8 7 5 5 10 9 6 5
21 22 22 22 23 23 23 23 23 23 23 21 18 14 11 10 7 3 6 5 7 6 9 13 25 28 27 13 7 11 9 12 6 6 5 2 7 11 5 4 7 6 8 8 5 5 8
23 24 24 24 25 25 25 25 25 24 23 22 19 14 9 7 3 5 5 6 8 7 2 10 11 15 22 16 16 16 18 13 6 4 6 7 9 3 1 4 6 4 5 5 5 2 3
23 24 25 26 27 27 27 27 26 25 24 22 19 14 7 4 4 4 5 5 8 5 5 7 4 2 6 10 9 27 19 8 3 10 6 7 6 6 4 5 5 4 5 5 3 4 3
24 25 26 27 28 29 28 28 26 25 24 24 18 12 4 2 1 3 3 3 6 1 3 4 1 2 3 9 2 9 25 15 8 7 6 10 4 6 6 7 7 9 3 6 5 4 3
26 27 28 29 30 31 31 30 28 27 26 20 16 8 1 1 1 4 2 3 2 6 4 7 4 6 1 6 4 4 9 18 7 4 3 6 1 4 7 5 6 1 2 6 5 3 2
28 28 29 30 31 33 34 32 30 28 25 17 12 8 5 3 2 0 1 2 5 4 5 8 5 6 2 5 5 6 4 4 5 3 4 4 4 4 3 3 1 4 6 4 4 4 6
29 30 31 32 33 34 35 33 32 29 19 15 13 15 12 8 4 1 3 5 2 1 3 4 5 5 5 7 3 8 3 4 6 3 2 2 10 4 2 6 4 4 7 5 4 3 6
31 31 33 34 34 35 36 35 33 29 16 10 13 13 13 10 8 6 0 4 3 3 4 5 8 5 6 6 6 6 6 3 3 2 2 4 7 3 6 7 8 3 3 4 5 3 2
33 34 34 34 35 36 37 36 34 28 17 5 7 8 13 8 9 9 5 2 1 4 5 2 1 5 6 7 7 6 3 4 7 2 2 2 5 3 5 0 1 5 6 2 2 2 5
33 35 36 37 37 37 37 37 35 30 20 3 1 3 12 8 10 7 4 2 4 5 5 1 2 2 1 3 2 3 5 2 7 9 2 1 2 7 3 2 2 4 2 3 5 5 6
32 34 35 37 38 38 37 37 36 32 25 6 3 3 11 4 7 4 2 4 6 7 11 6 3 4 3 2 3 2 2 2 13 6 3 4 4 4 8 6 4 3 3 4 5 4 3
31 32 34 35 38 39 39 37 35 32 30 16 4 4 13 3 3 4 6 4 3 9 6 7 5 4 4 2 2 4 4 5 17 7 3 3 2 4 10 6 6 5 3 3 3 2 5
30 32 33 35 36 38 39 39 36 32 29 15 5 4 9 13 8 3 5 4 6 10 3 7 5 5 5 3 4 1 3 3 14 8 9 3 1 6 7 5 2 5 3 4 3 1 2
29 31 32 34 35 35 37 39 38 35 29 10 9 5 5 4 6 5 2 4 4 7 8 10 3 6 4 4 6 2 2 5 9 3 5 3 3 4 4 7 4 6 9 7 7 7 5
28 29 31 32 32 34 35 36 36 36 30 30 7 7 7 3 6 5 4 3 3 4 3 5 3 8 5 4 3 4 2 3 6 4 2 2 4 1 4 9 7 7 11 9 9 7 8
26 27 28 29 30 31 32 33 35 35 34 18 16 9 5 4 4 2 1 2 4 10 7 11 7 8 5 2 16 20 24 23 15 6 3 3 4 2 5 4 7 10 10 9 6 6 5
24 26 26 27 27 29 30 29 29 30 30 24 20 12 5 4 2 3 5 10 5 3 6 19 22 7 5 21 25 19 23 28 25 21 22 7 6 5 5 2 8 7 3 6 7 2 6
27 27 25 26 26 27 28 28 25 25 24 22 19 13 5 3 5 11 2 4 14 17 8 13 19 15 19 15 3 5 4 5 8 15 16 18 7 3 5 8 10 15 13 4 3 2 4
28 28 26 25 25 26 26 26 26 22 21 20 17 15 7 4 5 5 6 7 3 3 6 6 11 16 6 1 2 6 5 5 5 5 4 7 5 7 3 6 8 4 4 5 2 4 5
29 28 26 23 23 25 25 25 25 25 22 19 16 14 10 7 10 8 8 4 3 3 3 8 8 7 10 0 3 4 5 4 5 4 5 4 3 13 5 5 7 4 10 10 5 4 14
29 30 30 28 22 22 23 24 24 23 24 22 17 13 16 8 28 14 10 12 8 8 4 4 8 1 2 1 3 4 3 3 4 4 3 5 5 4 3 4 9 3 4 2 6 5 11
32 32 29 27 25 21 21 21 22 22 22 24 20 20 19 16 23 33 31 29 29 25 14 6 4 3 4 0 2 3 2 2 2 4 5 4 5 3 7 5 5 7 3 16 10 7 13
Wind_Direction
19 15 11 8 5 3 3 1 355 350 345 341 339 337 334 331 327 326 312 304 303 295 287 287 297 314 333 318 290 221 215 201 194 198 172 164 142 348 305 208 181 196 282 318 254 172 156
10 7 5 2 359 356 354 352 350 346 341 336 332 330 328 326 323 318 312 296 287 289 280 277 283 295 306 296 296 243 229 224 220 205 194 203 23 337 290 271 168 255 269 302 202 173 151
3 1 359 357 355 352 349 347 344 341 339 335 329 325 323 322 321 316 312 295 278 277 273 269 271 278 277 265 269 229 234 247 230 224 215 271 319 293 317 290 334 301 3 357 43 130 151
359 357 355 353 351 349 347 344 342 339 335 332 328 324 322 319 316 316 311 295 281 266 266 266 267 275 260 256 240 223 226 232 235 238 229 228 311 313 240 297 5 59 80 309 210 161 158
359 357 355 354 351 348 345 343 340 337 334 329 324 321 320 318 314 318 313 298 279 264 253 255 259 251 269 242 246 246 215 230 240 241 248 253 292 280 296 56 13 21 268 247 246 194 140
3 2 1 359 357 355 352 349 345 340 335 329 321 319 318 317 314 325 331 325 288 235 225 230 237 259 250 252 244 251 220 211 207 190 212 226 242 20 15 69 270 253 238 271 235 207 180
11 9 6 3 360 357 355 352 348 344 340 334 325 316 316 316 314 341 353 170 296 293 241 225 255 250 344 229 250 238 224 213 221 257 176 169 60 258 261 207 248 263 240 246 261 201 157
13 11 8 5 3 1 358 354 350 346 341 338 330 318 314 313 313 130 76 86 45 317 301 265 262 264 257 253 310 225 203 182 172 211 142 65 230 247 240 246 253 281 284 280 284 192 177
17 14 11 9 7 5 2 359 354 349 344 338 334 323 316 314 311 158 122 49 9 352 279 288 260 257 257 251 243 240 198 190 179 178 201 191 242 64 247 301 268 249 224 271 240 91 48
20 16 12 10 8 6 3 1 356 351 347 341 332 327 319 324 151 176 163 359 350 344 52 280 271 268 226 213 266 243 223 202 201 218 197 223 273 232 241 232 213 317 253 255 162 107 220
20 17 14 11 8 5 3 2 359 353 351 342 333 337 322 162 202 165 207 286 321 236 16 329 331 338 200 185 260 222 225 214 199 202 122 247 220 222 265 243 167 237 323 294 323 124 88
21 18 14 11 9 4 2 2 2 356 354 350 346 0 33 160 184 154 218 283 168 45 258 332 347 349 129 241 276 2 178 212 243 182 259 253 253 209 217 230 205 280 150 43 43 78 360
22 18 15 12 9 6 2 4 3 360 2 3 12 51 74 79 132 159 340 164 44 127 341 320 325 6 347 334 357 27 147 110 183 165 276 337 245 265 202 283 148 87 54 333 1 14 227
22 19 16 14 11 8 5 5 6 3 13 25 67 75 73 65 45 346 332 55 127 325 317 314 329 326 54 4 21 340 46 93 28 87 130 194 299 192 173 204 208 189 156 162 234 223 257
24 20 18 15 13 10 7 6 9 7 18 68 87 74 58 49 39 15 31 66 184 215 288 317 328 41 344 356 17 40 32 27 35 49 174 177 271 263 196 225 144 206 190 196 109 24 42
25 22 20 17 15 13 9 6 9 11 12 82 98 69 32 16 5 1 73 181 232 227 311 359 311 31 5 336 28 28 26 4 333 335 43 239 304 265 299 339 226 161 170 85 12 221 268
23 22 20 19 17 15 12 9 8 11 11 29 331 56 2 357 359 36 100 226 287 313 341 337 350 7 42 360 299 312 7 24 358 313 9 73 117 289 344 195 159 350 263 55 126 148 178
20 19 19 19 18 18 16 13 9 9 14 20 60 54 6 8 42 39 56 314 337 325 3 18 73 15 3 336 309 298 112 29 354 319 10 335 158 255 239 279 311 182 207 159 139 249 207
19 17 16 17 18 18 18 18 15 12 12 15 43 19 19 66 70 354 323 321 353 8 8 12 15 23 10 342 303 56 26 335 2 27 17 321 319 352 343 357 4 54 326 95 113 75 206
16 13 12 15 15 14 15 18 18 17 15 18 24 26 24 56 59 75 358 335 324 358 71 1 19 58 4 345 11 307 329 340 331 334 349 144 174 187 208 228 210 295 268 320 121 125 226
11 10 10 13 11 11 12 14 16 18 21 32 36 53 17 343 354 359 348 353 353 357 351 355 46 43 340 293 335 333 6 326 303 244 10 91 244 215 253 266 226 240 254 241 230 216 198
5 4 7 8 8 9 11 12 15 17 19 44 50 8 351 342 327 345 3 24 18 352 314 312 52 337 326 258 172 276 317 220 229 279 61 339 252 135 284 294 284 265 258 237 229 258 245
356 357 2 2 3 5 9 11 11 14 20 34 31 5 342 336 343 32 287 55 318 326 272 252 357 335 267 263 316 288 275 257 249 234 238 226 197 157 248 244 303 300 257 207 205 213 210
351 352 353 356 356 358 3 9 10 10 16 21 18 9 358 288 320 266 312 308 267 260 266 281 295 257 251 304 311 292 266 253 249 241 221 210 173 174 220 31 248 245 233 210 213 7 31
346 344 345 347 347 351 354 359 5 7 7 9 7 9 350 287 268 295 268 258 301 299 259 258 277 263 296 304 283 301 305 311 245 227 219 216 188 215 198 201 272 285 288 186 175 181 358
331 329 333 335 339 341 346 348 351 1 360 0 355 354 346 301 246 249 291 271 267 276 318 252 273 300 292 231 184 217 218 231 276 303 23 146 148 208 142 184 218 229 258 318 273 213 5
323 326 325 323 327 333 337 339 341 346 351 353 348 341 336 279 274 252 245 249 255 270 249 290 320 323 319 274 229 228 247 238 227 222 193 139 130 211 188 225 278 274 299 305 212 274 327
318 318 318 321 315 323 325 328 332 337 337 342 343 332 320 271 290 269 250 233 246 226 198 305 336 306 314 213 187 257 246 276 316 300 264 196 165 192 156 203 259 317 34 64 312 337 340
308 309 309 304 314 313 315 317 322 328 331 332 335 328 321 289 279 292 285 270 260 252 258 239 242 286 266 123 266 304 304 283 198 296 316 284 201 212 190 215 167 102 4 327 324 333 328